Location: Adavinekkalam
(16.6301°N, 80.7229°E)
Time: 11:51:13
(UTC+00:00)

Milstar 3 - Pass Details

Date: 15 May 2026
Orbit: 1097 x 5148 km, 28.2° (Epoch: 6 June)

Event Time Altitude Azimuth Distance (km) Brightness Sun altitude
Rises 14:56:04 0° 297° (WNW) 3,905 7.0 -25.8°
Reaches altitude 10° 14:58:42 10° 304° (NW) 2,946 6.0 -26.3°
Maximum altitude 15:05:08 46° 18° (NNE) 1,617 3.6 -27.6°
Enters shadow 15:08:08 34° 66° (ENE) 2,140 3.9 -28.2°
